NUSANTARA TIGA (SATRIA)

Last updated on Sun Apr 12 2026 00:02:56 GMT+0000 (Coordinated Universal Time)

1 57045U 23086A 26100.97922149 -.00000232 00000+0 00000+0 0 9998 2 57045 0.0519 310.4063 0005144 28.4461 358.8802 1.00276929 9081
UTC large
Height (km)
Speed (km/s)
/
Latitude / Longitude
Inclination (degrees)
Orbital Period (minutes)
Azimuth
Elevation
Range (km)
Doppler Factor

Next 0 passes for location: London (51.5072 / 0.1276)

Sorry there are no passes over London.
NUSANTARA TIGA (SATRIA)